This demonstration page uses our WeatherBlox Daily Observations layout. Learn more.

Left ArrowRight Arrow

41.12389, -100.76542

Hourly Observations for December 5, 2021

Temp ( °F °C ) Dew Point ( °F °C ) Humidity (%) Winds ( mph kmh ) Pressure ( in mb ) Visibility ( mi km ) Precip ( " mm )
12:53 am 00:53 Clear 40 4.4 32 undefined 73 73 S 8 13 29.79 1009 10 16 N/A
1:53 am 01:53 Clear 39 3.9 32 undefined 76 76 S 5 7 29.75 1007 10 16 N/A
2:53 am 02:53 Clear 40 4.4 32 undefined 73 73 SSW 5 7 29.72 1006 10 16 N/A
3:53 am 03:53 Clear 38 3.3 31 -0.6 76 76 SW 5 7 29.69 1006 10 16 N/A
4:53 am 04:53 Clear 33 0.6 28 -2.2 82 82 W 6 9 29.68 1005 10 16 N/A
5:53 am 05:53 Clear 33 0.6 28 -2.2 82 82 WNW 6 9 29.72 1006 10 16 N/A
6:53 am 06:53 Clear 31 -0.6 27 -2.8 85 85 WNW 5 7 29.72 1007 10 16 N/A
7:53 am 07:53 Sunny 43 6.1 29 -1.7 58 58 N 9 15 29.73 1007 10 16 N/A
8:53 am 08:53 Sunny 40 4.4 29 -1.7 65 65 VRB 5 7 29.77 1008 10 16 N/A
9:53 am 09:53 Sunny 45 7.2 29 -1.7 54 54 NNW 9 15 29.77 1008 10 16 N/A
10:53 am 10:53 Sunny 49 9.4 24 -4.4 38 38 N 18 30 29.80 1009 10 16 N/A
11:53 am 11:53 Sunny 49 9.4 22 -5.6 35 35 N 17 28 29.81 1009 10 16 N/A
12:53 pm 12:53 Sunny 52 11.1 23 -5 32 32 N 23 37 29.80 1009 10 16 N/A
1:53 pm 13:53 Sunny 43 6.1 23 -5 45 45 NNW 26 43 29.88 1012 10 16 N/A
2:53 pm 14:53 Mostly Sunny 41 5 22 -5.6 47 47 NNW 28 44 29.92 1013 10 16 N/A
3:53 pm 15:53 Cloudy 37 2.8 23 -5 57 57 NNW 23 37 29.97 1015 10 16 N/A
4:53 pm 16:53 Cloudy 37 2.8 20 -6.7 50 50 NNW 21 33 30.04 1017 10 16 N/A
5:53 pm 17:53 Mostly Clear 35 1.7 18 -7.8 50 50 NW 15 24 30.06 1018 10 16 N/A
6:53 pm 18:53 Clear 34 1.1 18 -7.8 52 52 NW 22 35 30.13 1020 10 16 N/A
7:53 pm 19:53 Mostly Cloudy 33 0.6 13 -10.6 43 43 NNW 21 33 30.17 1022 10 16 N/A
8:53 pm 20:53 Mostly Cloudy 31 -0.6 13 -10.6 47 47 NNW 15 24 30.22 1023 10 16 N/A
9:53 pm 21:53 Mostly Cloudy 30 -1.1 13 -10.6 49 49 NNW 17 28 30.25 1025 10 16 N/A
10:53 pm 22:53 Mostly Cloudy 29 -1.7 13 -10.6 51 51 NNW 17 28 30.26 1025 10 16 N/A
11:53 pm 23:53 Mostly Clear 27 -2.8 14 -10 58 58 NNW 16 26 30.29 1026 10 16 N/A

Powered by AerisWeather